Waarnemingen

Advertentie
Mijn weer
Vichy, Frankrijk (7374): temperatuur & dauwpunt: 15.07.2018 09:00:00 - 21.07.2018 09:00:00 (CEST)Vichy, Frankrijk (7374): temperatuur 5cm: 15.07.2018 09:00:00 - 21.07.2018 09:00:00 (CEST)Vichy, Frankrijk (7374): windsnelheid & windstoten: 15.07.2018 09:00:00 - 21.07.2018 09:00:00 (CEST)Vichy, Frankrijk (7374): windrichting: 15.07.2018 09:00:00 - 21.07.2018 09:00:00 (CEST)Vichy, Frankrijk (7374): luchtdruk: 15.07.2018 09:00:00 - 21.07.2018 09:00:00 (CEST)Vichy, Frankrijk (7374): zicht: 15.07.2018 09:00:00 - 21.07.2018 09:00:00 (CEST)Vichy, Frankrijk (7374): Zonneschijnduur: 15.07.2018 09:00:00 - 21.07.2018 09:00:00 (CEST)Vichy, Frankrijk (7374): neerslag: 15.07.2018 09:00:00 - 21.07.2018 09:00:00 (CEST)
Datum & Tijd tt [°C] td [°C] tt 5cm [°C] ff [km/u] ff [kn] fx [km/u] fx [kn] dd ppp [hPa] vv [km] sd [min] rr [mm]
21.07.2018 09:00:00 17,5 15,8 16,4 3 2 7 4 ZZO 1014,5 19 0 0,0
21.07.2018 08:00:00 16,3 15,2 16,0 2 1 4 2 ZZO 1014,4 20 0 0,0
21.07.2018 07:00:00 15,9 15,6 14,6 0 0 5 3 N 1014,4 14 0 0,0
21.07.2018 06:00:00 15,7 15,2 13,4 3 1 5 3 ZZW 1014,1 9 0 0,0
21.07.2018 05:00:00 16,5 16,0 14,6 4 2 11 6 Z 1013,8 13 0 0,0
21.07.2018 04:00:00 16,8 16,3 14,9 4 2 9 5 Z 1013,7 8 0 0,0
21.07.2018 03:00:00 17,4 17,1 16,1 0 0 5 3 N 1013,8 20 0 0,0
21.07.2018 02:00:00 17,3 16,8 15,6 0 0 7 4 N 1014,0 20 0 0,0
21.07.2018 01:00:00 17,6 16,5 17,1 4 2 14 7 Z 1014,4 20 0 0,0
21.07.2018 00:00:00 18,5 18,0 17,9 3 2 8 4 ZO 1014,1 14 0 0,8
20.07.2018 23:00:00 18,5 17,7 18,0 3 2 13 7 ZW 1013,7 7 0 10,6
20.07.2018 22:00:00 19,6 18,3 18,6 4 2 11 6 W 1013,2 18 0 0,4
20.07.2018 21:00:00 20,8 18,6 20,0 3 1 9 5 ZZW 1013,1 20 0 0,0
20.07.2018 20:00:00 21,4 18,4 20,2 0 0 8 5 N 1012,8 20 0 0,0
20.07.2018 19:00:00 22,9 18,2 22,6 3 2 7 4 ZW 1012,0 20 0 0,0
20.07.2018 18:00:00 23,9 18,3 24,8 3 2 11 6 ZZO 1012,0 20 8 0,0
20.07.2018 17:00:00 24,8 18,0 24,4 4 2 12 6 ZZO 1012,7 20 20 0,0
20.07.2018 16:00:00 22,5 19,5 22,8 9 5 18 10 ZO 1013,3 20 0 0,2
20.07.2018 15:00:00 22,5 19,3 19,5 7 4 13 7 ZZW 1013,3 20 1 0,4
20.07.2018 14:00:00 23,8 15,6 23,1 3 2 7 4 NO 1013,8 20 1 0,0
20.07.2018 13:00:00 25,7 16,0 31,5 4 2 14 7 WZW 1013,7 20 58 0,0
20.07.2018 12:00:00 24,2 17,0 28,8 5 3 16 9 ZZO 1014,4 20 55 0,0
20.07.2018 11:00:00 22,0 16,9 26,0 11 6 21 11 ZZO 1015,0 20 47 0,0
20.07.2018 10:00:00 20,9 16,5 24,7 10 5 18 10 Z 1015,4 20 51 0,0
20.07.2018 09:00:00 19,8 16,8 18,1 9 5 15 8 Z 1015,5 20 43 0,0
20.07.2018 08:00:00 18,0 16,5 16,7 4 2 6 3 ZW 1015,4 20 6 0,0
20.07.2018 07:00:00 17,1 16,0 16,3 0 0 14 8 N 1015,7 20 0 0,6
20.07.2018 06:00:00 17,6 15,6 16,4 5 3 17 9 Z 1016,8 14 0 0,4
20.07.2018 05:00:00 17,8 15,8 14,3 5 3 14 8 WNW 1016,1 20 0 0,0
20.07.2018 04:00:00 16,1 15,3 13,4 0 0 4 2 N 1015,6 18 0 0,0
20.07.2018 03:00:00 17,0 15,5 14,5 0 0 5 3 N 1015,2 20 0 0,0
20.07.2018 02:00:00 17,5 16,0 15,3 2 1 6 4 Z 1015,0 20 0 0,0
20.07.2018 01:00:00 18,6 16,6 15,9 4 2 7 4 Z 1014,6 20 0 0,0
20.07.2018 00:00:00 20,6 16,6 18,8 4 2 9 5 Z 1014,4 20 0 0,0
19.07.2018 23:00:00 23,2 16,0 19,0 10 5 23 12 NW 1014,1 20 0 0,4
19.07.2018 22:00:00 22,9 15,7 20,1 3 1 7 4 ZW 1014,0 20 0 0,0
19.07.2018 21:00:00 25,3 15,3 22,1 0 0 6 3 N 1012,8 20 20 0,0
19.07.2018 20:00:00 30,2 12,1 29,6 6 3 15 8 NO 1012,2 20 54 0,0
19.07.2018 19:00:00 31,1 12,5 35,3 7 4 19 10 ONO 1012,3 19 60 0,0
19.07.2018 18:00:00 31,2 11,1 37,7 4 2 15 8 NNO 1013,0 18 60 0,0
19.07.2018 17:00:00 31,4 11,7 37,6 7 4 16 9 OZO 1013,2 20 60 0,0
19.07.2018 16:00:00 30,7 12,1 37,5 5 3 17 9 O 1013,7 20 60 0,0
19.07.2018 15:00:00 30,2 11,7 36,9 8 5 22 12 NNO 1014,1 20 60 0,0
19.07.2018 14:00:00 29,6 10,7 35,8 9 5 20 11 ONO 1014,6 20 60 0,0
19.07.2018 13:00:00 28,7 12,6 36,0 6 4 17 9 NO 1015,2 20 60 0,0
19.07.2018 12:00:00 27,2 13,5 33,0 5 3 13 7 OZO 1015,6 20 60 0,0
19.07.2018 11:00:00 25,0 16,2 28,5 9 5 16 9 ZO 1016,0 19 60 0,0
19.07.2018 10:00:00 22,1 15,2 25,0 13 7 18 10 ZZO 1016,4 20 60 0,0
19.07.2018 09:00:00 19,6 14,4 21,5 11 6 14 8 ZO 1016,8 20 60 0,0
19.07.2018 08:00:00 17,3 14,2 13,3 9 5 17 9 ZZO 1016,9 20 60 0,0
19.07.2018 07:00:00 14,0 13,2 11,7 0 0 7 4 N 1017,0 20 21 0,0
19.07.2018 06:00:00 13,6 12,3 11,6 4 2 9 5 ZZW 1017,1 20 0 0,0
19.07.2018 05:00:00 15,1 13,8 11,8 6 4 13 7 Z 1017,0 20 0 0,0
19.07.2018 04:00:00 13,9 12,8 11,8 2 1 4 2 WZW 1017,0 20 0 0,0
19.07.2018 03:00:00 15,0 13,7 12,3 3 2 6 4 W 1016,8 20 0 0,0
19.07.2018 02:00:00 15,6 14,0 12,8 2 1 4 2 WNW 1017,0 20 0 0,0
19.07.2018 01:00:00 16,1 13,9 13,9 0 0 5 3 N 1016,9 20 0 0,0
19.07.2018 00:00:00 17,4 14,3 14,6 3 2 5 3 WZW 1016,9 20 0 0,0
18.07.2018 23:00:00 18,0 14,9 15,5 0 0 3 2 N 1016,3 20 0 0,0
18.07.2018 22:00:00 19,9 14,5 17,2 0 0 5 3 N 1015,8 20 6 0,0
18.07.2018 21:00:00 26,0 12,4 22,4 5 3 10 6 NNO 1014,6 20 58 0,0
18.07.2018 20:00:00 27,7 11,3 31,4 10 6 15 8 NNO 1014,0 20 60 0,0
18.07.2018 19:00:00 28,5 11,1 33,5 8 4 16 9 NO 1014,0 20 60 0,0
18.07.2018 18:00:00 28,8 9,5 34,6 5 3 18 10 NNW 1014,0 20 60 0,0
18.07.2018 17:00:00 29,0 11,5 35,3 6 3 19 11 WZW 1014,4 20 60 0,0
18.07.2018 16:00:00 28,1 11,6 35,8 9 5 19 10 NO 1015,0 19 60 0,0
18.07.2018 15:00:00 27,5 11,1 30,4 3 2 20 11 W 1015,4 20 60 0,0
18.07.2018 14:00:00 26,8 12,4 35,0 6 3 16 9 OZO 1016,1 17 60 0,0
18.07.2018 13:00:00 26,4 13,8 34,1 3 1 8 5 NNO 1016,5 19 60 0,0
18.07.2018 12:00:00 25,6 12,8 32,4 4 2 10 5 O 1017,2 20 60 0,0
18.07.2018 11:00:00 23,6 14,6 28,8 4 2 11 6 OZO 1017,6 20 60 0,0
18.07.2018 10:00:00 21,2 15,1 24,7 7 4 13 7 ZO 1018,1 19 60 0,0
18.07.2018 09:00:00 18,6 14,1 20,7 8 4 14 7 ZZO 1018,4 20 60 0,0
18.07.2018 08:00:00 16,0 13,8 12,1 9 5 13 7 ZZO 1018,6 20 60 0,0
18.07.2018 07:00:00 13,1 12,9 10,2 5 3 8 4 Z 1019,0 20 22 0,0
18.07.2018 06:00:00 13,0 12,7 9,3 5 3 9 5 Z 1018,9 20 0 0,0
18.07.2018 05:00:00 12,1 11,6 9,0 0 0 6 3 N 1019,2 20 0 0,0
18.07.2018 04:00:00 12,4 11,8 9,6 0 0 0 0 N 1019,1 20 0 0,0
18.07.2018 03:00:00 13,1 12,2 10,1 0 0 3 2 N 1019,4 20 0 0,0
18.07.2018 02:00:00 13,8 12,9 10,5 0 0 2 1 N 1019,3 20 0 0,0
18.07.2018 01:00:00 14,6 13,1 12,3 0 0 5 3 N 1019,7 20 0 0,0
18.07.2018 00:00:00 15,8 13,5 13,3 0 0 6 3 N 1019,5 20 0 0,0
17.07.2018 23:00:00 16,9 13,6 13,3 0 0 3 1 N 1019,0 20 0 0,0
17.07.2018 22:00:00 19,7 12,7 15,1 2 1 13 7 NNW 1018,2 20 7 0,0
17.07.2018 21:00:00 24,0 12,0 22,6 8 4 23 12 NW 1017,5 20 60 0,0
17.07.2018 20:00:00 25,7 12,5 28,6 10 5 28 15 NW 1017,0 20 60 0,0
17.07.2018 19:00:00 26,7 13,4 31,2 10 6 23 13 NW 1016,6 20 60 0,0
17.07.2018 18:00:00 26,1 13,2 27,3 11 6 22 12 WNW 1017,0 20 47 0,0
17.07.2018 17:00:00 26,8 13,2 28,9 10 5 23 13 NW 1017,1 20 35 0,0
17.07.2018 16:00:00 26,1 12,2 30,2 7 4 23 12 WNW 1017,6 20 47 0,0
17.07.2018 15:00:00 25,7 13,2 28,8 9 5 25 13 W 1017,9 20 57 0,0
17.07.2018 14:00:00 24,8 13,7 25,9 11 6 27 15 NW 1018,4 20 38 0,0
17.07.2018 13:00:00 23,5 14,5 24,4 5 3 23 12 NW 1019,1 20 19 0,0
17.07.2018 12:00:00 22,8 14,9 24,1 6 3 20 11 W 1019,3 20 29 0,0
17.07.2018 11:00:00 20,9 14,1 23,1 6 4 21 12 W 1019,5 19 23 0,0
17.07.2018 10:00:00 20,6 14,5 22,2 7 4 21 11 W 1019,3 20 44 0,0
17.07.2018 09:00:00 19,8 15,2 22,8 5 3 14 8 ZW 1019,1 20 60 0,0
17.07.2018 08:00:00 17,9 16,1 14,8 4 2 13 7 ZZO 1019,2 20 60 0,0
17.07.2018 07:00:00 15,2 14,7 13,8 6 3 12 6 Z 1019,2 18 23 0,0
17.07.2018 06:00:00 15,0 14,5 13,2 8 5 14 7 Z 1018,8 14 0 0,0
17.07.2018 05:00:00 15,3 14,8 14,1 9 5 16 9 Z 1018,0 15 0 0,0
17.07.2018 04:00:00 15,6 15,1 14,5 11 6 18 10 Z 1017,7 18 0 0,0
17.07.2018 03:00:00 15,9 15,3 14,8 11 6 18 10 Z 1017,4 18 0 0,0
17.07.2018 02:00:00 16,3 15,7 15,2 11 6 19 10 ZZO 1017,4 20 0 0,0
17.07.2018 01:00:00 16,5 15,7 15,5 11 6 20 11 Z 1017,1 19 0 0,0
17.07.2018 00:00:00 16,8 15,8 15,7 12 7 18 10 ZZO 1016,9 20 0 0,0
16.07.2018 23:00:00 17,3 16,2 16,4 10 5 26 14 Z 1016,6 20 0 0,0
16.07.2018 22:00:00 17,8 16,5 17,1 12 6 23 13 Z 1015,8 20 0 0,0
16.07.2018 21:00:00 17,9 16,2 17,3 6 3 19 10 Z 1015,3 20 20 0,0
16.07.2018 20:00:00 18,5 16,8 18,3 9 5 19 11 ZZO 1014,5 20 0 0,0
16.07.2018 19:00:00 18,3 17,0 17,2 11 6 26 14 Z 1013,9 20 4 3,9
16.07.2018 18:00:00 18,2 16,2 17,2 18 10 40 21 NNO 1015,0 2,2 0 22,5
16.07.2018 17:00:00 20,5 17,5 19,2 12 7 23 12 Z 1012,3 20 0 2,8
16.07.2018 16:00:00 20,3 18,1 18,3 11 6 29 16 Z 1012,5 20 0 2,2
16.07.2018 15:00:00 20,7 17,1 18,3 8 5 26 14 WZW 1011,6 20 0 3,9
16.07.2018 14:00:00 27,5 13,4 28,7 11 6 24 13 N 1010,8 20 29 0,0
16.07.2018 13:00:00 28,9 11,5 34,0 14 7 25 14 NO 1011,1 20 54 0,0
16.07.2018 12:00:00 27,9 15,2 35,0 10 6 21 11 NO 1011,0 18 60 0,0
16.07.2018 11:00:00 25,8 15,8 32,0 4 2 9 5 O 1011,8 20 55 0,0
16.07.2018 10:00:00 23,9 16,2 27,8 4 2 10 5 O 1011,9 20 60 0,0
16.07.2018 09:00:00 20,4 16,0 20,4 4 2 13 7 ZZO 1012,6 20 60 0,0
16.07.2018 08:00:00 17,2 15,4 15,0 5 3 10 6 Z 1013,1 20 60 0,0
16.07.2018 07:00:00 15,2 15,2 10,8 5 3 11 6 ZZO 1013,3 19 24 0,0
16.07.2018 06:00:00 13,4 13,1 11,5 0 0 9 5 N 1013,5 11 0 0,0
16.07.2018 05:00:00 14,4 13,9 12,6 3 2 12 7 WZW 1013,8 11 0 0,0
16.07.2018 04:00:00 14,7 14,5 11,7 4 2 8 4 ZZW 1014,3 11 0 0,2
16.07.2018 03:00:00 15,0 14,7 11,9 2 1 11 6 ZO 1014,5 13 0 0,0
16.07.2018 02:00:00 15,2 14,7 12,4 0 0 7 4 N 1014,9 16 0 0,0
16.07.2018 01:00:00 16,1 15,1 13,6 3 1 12 7 ZZO 1015,1 20 0 0,0
16.07.2018 00:00:00 16,2 15,1 13,5 3 1 5 3 ZW 1014,9 20 0 0,0
15.07.2018 23:00:00 17,3 15,3 15,1 3 1 6 3 NW 1014,5 20 0 0,0
15.07.2018 22:00:00 18,8 15,3 16,4 2 1 6 3 WNW 1014,3 20 8 0,0
15.07.2018 21:00:00 21,8 15,4 21,7 3 2 17 9 ZW 1013,2 20 58 0,0
15.07.2018 20:00:00 23,5 15,3 26,6 9 5 13 7 ZZO 1013,2 20 34 0,0
15.07.2018 19:00:00 24,1 15,0 25,3 4 2 45 25 ZZO 1013,1 20 35 0,0
15.07.2018 18:00:00 26,9 14,6 28,0 22 12 47 25 N 1012,3 20 19 0,0
15.07.2018 17:00:00 29,5 14,9 29,6 5 3 24 13 ZZO 1011,7 20 35 0,0
15.07.2018 16:00:00 30,9 15,3 37,0 9 5 18 10 ZO 1011,6 20 60 0,0
15.07.2018 15:00:00 27,7 19,0 21,9 8 4 18 10 ZO 1012,5 20 42 0,0
15.07.2018 14:00:00 22,7 19,9 20,9 6 3 20 11 WNW 1013,7 20 15 3,6
15.07.2018 13:00:00 29,6 16,1 38,4 4 2 13 7 OZO 1013,3 20 60 0,0
15.07.2018 12:00:00 28,9 15,8 35,8 6 3 18 10 O 1014,0 20 60 0,0
15.07.2018 11:00:00 26,6 15,9 31,3 9 5 17 9 ZO 1014,3 20 57 0,0
15.07.2018 10:00:00 23,6 16,4 25,6 10 5 16 9 ZZO 1015,0 20 50 0,0
15.07.2018 09:00:00 21,0 15,5 19,2 10 6 16 9 ZZO 1015,5 20 34 0,0

tt = temperatuur
td = dauwpunt
tt 5cm = temperatuur 5cm
ff = windsnelheid
fx = windstoten
dd = windrichting
ppp = luchtdruk
vv = zicht
sd = Zonneschijnduur
rr = neerslag

Weerstations in de omgeving